Weather in Aim

Russia / Khabarovsk Krai     58°46′26″N   134°15′09″E
temp.,
°C
wind,
m/s
gust,
m/s
humid.,
%
clouds,
%
prec.,
mm/h
press.,
hPa
HPBL,
m
25 june, sat
sat2501:00+14nw11730 0.0 100110
04:00+12nw11755 0.0 100110
07:00+18nw11625 0.0 1002123
10:00+24nnw12430 0.0 1001862
13:00+27n12370 0.0 10012145
16:00+28nne12320 0.0 10002484
19:00+27nne12415 0.0 10002192
22:00+19nw11675 0.0 100111
26 june, sun
sun2601:00+15ne01745 0.0 100211
04:00+14s11805 0.0 100311
07:00+18s12670 0.0 1003165
10:00+24s23495 0.0 1002787
13:00+28ssw24350 0.0 10012533
16:00+29ssw233145 0.0 10002848
19:00+27se24454 0.0 999456
22:00+21sse2265100 0.0 100016
27 june, mon
mon2701:00+17sse22723 0.0 100032
04:00+15sse228082 0.0 100121
07:00+19ssw2368100 0.0 1001140
10:00+23ssw235240 0.0 1001455
13:00+29sw233897 0.0 9991504
16:00+30s2530100 0.0 9973493
19:00+18wnw1389100 0.8 1000131
22:00+16wnw0095100 0.9 100111
28 june, tue
tue2801:00+15se229685 0.5 100018
04:00+13sse2294100 0.6 100118
07:00+16s128851 0.0 1001128
10:00+23w23585 0.0 1000805
13:00+27w34434 0.0 9992046
16:00+25nw2451100 0.0 999421
19:00+26nne124672 0.0 999918
22:00+17wsw31090100 1.3 1001394
29 june, wed
wed2901:00+16se1198100 7.3 100220
04:00+14ssw119816 7.3 100311
07:00+17s119114 0.0 1003188
10:00+23nne01645 0.0 1004750
13:00+28nw11479 0.0 10031724
16:00+28nw114344 0.0 10022015
19:00+25ne236158 0.0 1003255
22:00+21e117165 0.1 100411